GW3931 Weather Reports


time (UTC)temp
F
wind
direction
speed
knots
gust
knots
rain 1hr
in
rain 24hr
in
rain mn
in
humidity
%
barometer
mb
20260505051332 63 133 0.0 0.0 0.00 0.00 0.00 58 1012.7
20260505050830 63 151 0.0 0.0 0.00 0.00 0.00 58 1012.8
20260505050328 63 161 0.0 0.0 0.00 0.00 0.00 57 1012.7
20260505041758 66 158 0.0 2.6 0.00 0.00 0.00 52 1013.0
20260505041255 66 157 0.0 0.9 0.00 0.00 0.00 52 1012.7
20260505040752 66 163 0.0 0.0 0.00 0.00 0.00 51 1013.0
20260505040250 66 155 0.0 1.7 0.00 0.00 0.00 51 1012.8
20260505035747 66 161 0.0 0.0 0.00 0.00 0.00 51 1012.6
20260505035242 67 156 0.0 1.7 0.00 0.00 0.00 50 1012.6
20260505034739 67 159 0.0 0.0 0.00 0.00 0.00 50 1012.7
20260505034236 67 160 0.0 0.0 0.00 0.00 0.00 49 1012.5
20260505033733 67 172 0.9 0.9 0.00 0.00 0.00 49 1012.5
20260505033231 67 96 0.9 0.9 0.00 0.00 0.00 49 1012.5
20260505032729 68 164 0.0 1.7 0.00 0.00 0.00 49 1012.6
20260505032224 68 180 0.9 0.9 0.00 0.00 0.00 49 1012.7
20260505031722 67 181 0.0 0.0 0.00 0.00 0.00 49 1012.5
20260505031218 68 154 0.0 0.0 0.00 0.00 0.00 49 1012.5
20260505030715 68 157 0.0 0.0 0.00 0.00 0.00 48 1012.6
20260505030211 68 160 0.0 0.0 0.00 0.00 0.00 48 1012.5
20260505025707 68 149 0.0 0.0 0.00 0.00 0.00 48 1012.6
20260505025206 69 157 0.0 0.0 0.00 0.00 0.00 47 1012.7
20260505024703 69 142 0.0 0.9 0.00 0.00 0.00 47 1012.5
20260505024200 69 158 0.0 0.0 0.00 0.00 0.00 47 1012.6
20260505023657 69 155 0.0 0.0 0.00 0.00 0.00 47 1012.6
20260505023155 69 156 0.0 0.9 0.00 0.00 0.00 46 1012.6
20260505022652 69 104 0.9 1.7 0.00 0.00 0.00 46 1012.6
20260505022149 69 157 0.0 0.9 0.00 0.00 0.00 46 1012.3
20260505021645 69 176 0.0 0.0 0.00 0.00 0.00 47 1012.4
20260505021143 68 149 0.0 1.7 0.00 0.00 0.00 47 1012.4
20260505020638 68 172 0.9 0.9 0.00 0.00 0.00 48 1012.4
20260505020134 68 148 0.0 0.0 0.00 0.00 0.00 48 1012.6
20260505015631 69 158 0.0 0.0 0.00 0.00 0.00 47 1012.5
20260505015128 69 155 0.0 0.0 0.00 0.00 0.00 47 1012.5
20260505014625 69 157 0.0 0.0 0.00 0.00 0.00 46 1012.2
20260505014122 70 152 0.0 0.0 0.00 0.00 0.00 47 1012.3
20260505013619 70 122 0.0 0.0 0.00 0.00 0.00 46 1012.1
20260505013116 70 145 0.9 1.7 0.00 0.00 0.00 45 1012.1
20260505012615 70 122 0.0 0.9 0.00 0.00 0.00 45 1012.1
20260505012111 71 122 0.0 0.9 0.00 0.00 0.00 45 1012.2
20260505011607 71 132 0.0 0.0 0.00 0.00 0.00 45 1011.9
20260505011104 71 154 0.0 1.7 0.00 0.00 0.00 45 1011.7
20260505010559 71 149 0.0 2.6 0.00 0.00 0.00 45 1011.8
20260505010056 71 141 0.0 0.0 0.00 0.00 0.00 45 1012.1
20260505005552 71 115 0.0 0.9 0.00 0.00 0.00 45 1011.8
20260505005050 72 154 0.0 0.0 0.00 0.00 0.00 44 1011.7
20260505004546 72 147 0.0 1.7 0.00 0.00 0.00 45 1011.9
20260505004043 72 123 0.0 0.0 0.00 0.00 0.00 44 1011.6
20260505003540 72 144 0.0 0.9 0.00 0.00 0.00 44 1011.7
20260505003038 73 148 0.0 0.9 0.00 0.00 0.00 43 1011.7
20260505002538 73 133 0.0 0.0 0.00 0.00 0.00 42 1011.6
20260505002038 73 155 0.0 2.6 0.00 0.00 0.00 41 1011.7
20260505001534 74 133 0.0 0.9 0.00 0.00 0.00 41 1011.5
20260505001031 74 200 0.9 1.7 0.00 0.00 0.00 41 1011.6
20260505000529 74 315 0.9 1.7 0.00 0.00 0.00 40 1011.7
20260505000026 74 160 0.0 0.0 0.00 0.00 0.00 40 1011.6
20260504235523 74 173 1.7 2.6 0.00 0.00 0.00 39 1011.5
20260504235019 74 355 0.0 1.7 0.00 0.00 0.00 39 1011.4
20260504234517 74 232 0.9 2.6 0.00 0.00 0.00 39 1011.3
20260504234014 75 159 0.9 0.9 0.00 0.00 0.00 39 1011.5
20260504233509 75 147 0.9 2.6 0.00 0.00 0.00 38 1011.5
20260504233006 75 103 1.7 2.6 0.00 0.00 0.00 38 1011.3
20260504232503 75 224 1.7 3.5 0.00 0.00 0.00 37 1011.6
20260504232001 75 159 0.0 2.6 0.00 0.00 0.00 38 1011.3
20260504231456 75 265 1.7 2.6 0.00 0.00 0.00 37 1011.2
20260504230953 76 143 0.9 3.5 0.00 0.00 0.00 36 1011.2
20260504230450 76 150 0.9 7.0 0.00 0.00 0.00 36 1011.5
20260504225949 76 299 1.7 5.2 0.00 0.00 0.00 36 1011.2
20260504225445 76 294 0.9 3.5 0.00 0.00 0.00 36 1011.2
20260504224942 76 56 0.9 1.7 0.00 0.00 0.00 36 1011.1
20260504224438 76 139 0.9 2.6 0.00 0.00 0.00 36 1011.3
20260504223936 76 252 0.9 3.5 0.00 0.00 0.00 35 1011.3
20260504223432 77 283 1.7 3.5 0.00 0.00 0.00 35 1011.4
20260504222927 77 206 2.6 5.2 0.00 0.00 0.00 34 1011.3
20260504222425 78 217 0.0 5.2 0.00 0.00 0.00 34 1011.0
20260504221923 77 226 0.9 2.6 0.00 0.00 0.00 34 1011.4
20260504221419 77 114 0.0 5.2 0.00 0.00 0.00 34 1011.4
20260504220917 78 261 2.6 3.5 0.00 0.00 0.00 33 1011.2
20260504220413 78 240 2.6 3.5 0.00 0.00 0.00 33 1011.2
20260504215910 78 96 0.9 3.5 0.00 0.00 0.00 33 1011.2
20260504215407 78 30 2.6 8.7 0.00 0.00 0.00 32 1011.2
20260504214903 78 130 0.9 6.1 0.00 0.00 0.00 32 1011.2
20260504214400 78 114 1.7 6.1 0.00 0.00 0.00 32 1011.3
20260504213857 78 286 1.7 7.0 0.00 0.00 0.00 33 1011.5
20260504213352 78 82 1.7 13.0 0.00 0.00 0.00 33 1011.4
20260504212850 79 66 1.7 5.2 0.00 0.00 0.00 32 1011.3
20260504212346 78 16 1.7 7.8 0.00 0.00 0.00 32 1011.3
20260504211844 79 337 5.2 7.0 0.00 0.00 0.00 31 1011.5
20260504211340 78 44 0.9 2.6 0.00 0.00 0.00 31 1011.4
20260504210838 79 72 0.9 3.5 0.00 0.00 0.00 31 1011.2
20260504210334 79 177 1.7 7.0 0.00 0.00 0.00 31 1011.3
20260504205831 79 98 2.6 5.2 0.00 0.00 0.00 31 1011.2
20260504205329 79 142 1.7 7.0 0.00 0.00 0.00 31 1011.4
20260504204827 79 132 0.9 2.6 0.00 0.00 0.00 31 1011.4
20260504204326 79 62 1.7 5.2 0.00 0.00 0.00 31 1011.2
20260504203824 79 126 0.0 2.6 0.00 0.00 0.00 31 1011.3
20260504203321 79 205 0.9 2.6 0.00 0.00 0.00 30 1011.4
20260504202816 78 290 0.9 7.0 0.00 0.00 0.00 31 1011.3
20260504202314 79 87 1.7 8.7 0.00 0.00 0.00 31 1011.4
20260504201810 78 333 2.6 5.2 0.00 0.00 0.00 30 1011.5
20260504201308 79 20 0.9 5.2 0.00 0.00 0.00 30 1011.7
20260504200806 79 242 3.5 5.2 0.00 0.00 0.00 30 1011.7
20260504200302 79 350 1.7 5.2 0.00 0.00 0.00 30 1011.7
20260504195758 78 90 0.9 3.5 0.00 0.00 0.00 31 1011.9
20260504195254 78 310 3.5 7.0 0.00 0.00 0.00 31 1011.7
20260504194751 78 172 0.9 5.2 0.00 0.00 0.00 31 1011.8
20260504194247 78 84 0.9 5.2 0.00 0.00 0.00 31 1011.8
20260504193743 78 177 1.7 2.6 0.00 0.00 0.00 32 1012.1
20260504193241 78 89 1.7 8.7 0.00 0.00 0.00 31 1012.2
20260504192739 78 182 2.6 5.2 0.00 0.00 0.00 31 1012.4
20260504192237 78 29 2.6 7.0 0.00 0.00 0.00 31 1012.4
20260504191736 78 225 0.0 1.7 0.00 0.00 0.00 32 1012.4
20260504191232 78 98 1.7 2.6 0.00 0.00 0.00 32 1012.7
20260504190727 77 266 1.7 3.5 0.00 0.00 0.00 31 1012.7
20260504190224 77 104 0.9 2.6 0.00 0.00 0.00 32 1013.0
20260504185720 78 190 1.7 3.5 0.00 0.00 0.00 31 1012.6
20260504185218 77 72 1.7 2.6 0.00 0.00 0.00 31 1012.8
20260504184713 76 176 2.6 3.5 0.00 0.00 0.00 33 1013.0
20260504184209 77 86 2.6 6.1 0.00 0.00 0.00 31 1013.0
20260504183705 76 98 1.7 3.5 0.00 0.00 0.00 32 1013.4
20260504183203 76 261 0.9 7.0 0.00 0.00 0.00 32 1013.4
20260504182701 76 238 2.6 6.1 0.00 0.00 0.00 32 1013.4
20260504182158 76 210 0.9 3.5 0.00 0.00 0.00 33 1013.4
20260504181655 76 225 4.3 5.2 0.00 0.00 0.00 32 1013.5
20260504181153 75 76 5.2 7.8 0.00 0.00 0.00 33 1013.5
20260504180652 75 296 3.5 6.1 0.00 0.00 0.00 33 1013.7
20260504180150 75 162 3.5 7.0 0.00 0.00 0.00 33 1013.6
20260504175647 75 148 0.0 1.7 0.00 0.00 0.00 34 1013.8
20260504175143 76 266 2.6 7.0 0.00 0.00 0.00 33 1013.8
20260504174642 75 196 1.7 3.5 0.00 0.00 0.00 33 1014.0
20260504174138 75 201 0.9 1.7 0.00 0.00 0.00 34 1013.9
20260504173635 75 156 1.7 6.1 0.00 0.00 0.00 35 1014.1
20260504173132 75 204 1.7 2.6 0.00 0.00 0.00 34 1014.1
20260504172629 74 165 1.7 2.6 0.00 0.00 0.00 36 1014.2
20260504172125 74 91 1.7 3.5 0.00 0.00 0.00 34 1014.2
20260504171621 73 96 1.7 6.1 0.00 0.00 0.00 35 1014.4
20260504171119 73 66 0.9 7.0 0.00 0.00 0.00 36 1014.6
20260504170615 73 156 1.7 3.5 0.00 0.00 0.00 35 1014.4
20260504170113 73 229 1.7 3.5 0.00 0.00 0.00 35 1014.4
20260504150958 70 101 0.0 0.9 0.00 0.00 0.00 38 1015.6
20260504150455 70 227 2.6 3.5 0.00 0.00 0.00 39 1015.5
20260504140916 66 204 0.9 0.9 0.00 0.00 0.00 43 1016.1
20260504140412 65 110 0.0 0.0 0.00 0.00 0.00 43 1015.9
20260504130337 59 116 0.9 2.6 0.00 0.00 0.00 51 1016.7
20260504120300 55 272 1.7 1.7 0.00 0.00 0.00 57 1016.8
20260504110224 52 139 0.0 0.9 0.00 0.00 0.00 60 1017.1
20260504100148 53 153 0.0 0.0 0.00 0.00 0.00 60 1016.9
20260504090110 53 4 1.7 1.7 0.00 0.00 0.00 57 1016.9
20260504081541 53 152 0.0 0.0 0.00 0.00 0.00 61 1017.2
20260504081036 53 135 0.0 0.9 0.00 0.00 0.00 61 1017.2
20260504080533 53 156 0.0 0.9 0.00 0.00 0.00 62 1017.1